User: anonymous   Login
Location: NJAA Observatory
(40.6819°N, 74.8979°W)
Time: 17:00:32
(UTC-04:00)
Language:

Cosmos 1939 Rocket - Orbit

View from above orbital plane
View from above orbital plane
View from above satellite
View from above satellite

Ground track
Ground track

The orbit data is extracted from the following two-line orbital elements,

1 19046U 88032B   17178.92140714 +.00000055 +00000-0 +87395-5 0  9990
2 19046 097.5304 225.5360 0033781 296.1398 063.6353 15.02241094573967
Epoch (UTC): 27 June 2017 22:06:49
Eccentricity: 0.0033781
inclination: 97.5304°
perigee height: 536 km
apogee height: 583 km
right ascension of ascending node: 225.5360°
argument of perigee: 296.1398°
revolutions per day: 15.02241094
mean anomaly at epoch: 63.6353°
orbit number at epoch: 57396

The dashed part of the orbit path shows where the satellite is in the earth's shadow,  

DLR